timestamp,surface_pressure_avg,surface_temp_avg,battery_voltage,lat,long
2017-09-30 00:00:00+00:00,258.8297,13.9,12.97,47.84626,-54.09684
2017-09-30 00:10:00+00:00,259.8348,13.9,12.97,47.84626,-54.09684
2017-09-30 00:20:00+00:00,257.688,13.9,13.05,47.84626,-54.09684
2017-09-30 00:30:00+00:00,254.2598,13.89,13.05,47.84626,-54.09684
2017-09-30 00:40:00+00:00,257.1431,13.89,13.05,47.84626,-54.09684
2017-09-30 00:50:00+00:00,255.4114,13.9,13.05,47.84626,-54.09684
2017-09-30 01:00:00+00:00,251.0881,13.84,12.97,47.84626,-54.09684
2017-09-30 01:10:00+00:00,251.7281,13.86,12.97,47.84626,-54.09684
2017-09-30 01:20:00+00:00,257.2164,13.89,12.97,47.84626,-54.09684
2017-09-30 01:30:00+00:00,254.8647,13.9,12.97,47.84626,-54.09684
2017-09-30 01:40:00+00:00,253.1581,13.89,13.05,47.84626,-54.09684
2017-09-30 01:50:00+00:00,263.3664,13.9,13.05,47.84626,-54.09684
2017-09-30 02:00:00+00:00,264.0547,13.9,12.97,47.84626,-54.09684
2017-09-30 02:10:00+00:00,256.5447,13.9,12.89,47.84626,-54.09684
2017-09-30 02:20:00+00:00,253.6747,13.8,12.97,47.84626,-54.09684
2017-09-30 02:30:00+00:00,260.3047,13.8,12.97,47.84626,-54.09684
2017-09-30 02:40:00+00:00,258.2747,13.8,12.97,47.84626,-54.09684
2017-09-30 02:50:00+00:00,252.0831,13.7,13.05,47.84626,-54.09684
2017-09-30 03:00:00+00:00,257.8664,13.69,12.97,47.84626,-54.09684
2017-09-30 03:10:00+00:00,267.9831,13.7,12.89,47.84626,-54.09684
2017-09-30 03:20:00+00:00,267.1414,13.7,12.97,47.84626,-54.09684
2017-09-30 03:30:00+00:00,269.3464,13.65,12.97,47.84626,-54.09684
2017-09-30 03:40:00+00:00,279.4914,13.6,12.97,47.84626,-54.09684
2017-09-30 03:50:00+00:00,281.1313,13.56,12.97,47.84626,-54.09684
2017-09-30 04:00:00+00:00,279.8397,13.5,12.97,47.84626,-54.09684
2017-09-30 04:10:00+00:00,287.9064,13.47,12.89,47.84626,-54.09684
2017-09-30 04:20:00+00:00,295.2964,13.5,12.97,47.84626,-54.09684
2017-09-30 04:30:00+00:00,292.2964,13.4,12.97,47.84626,-54.09684
2017-09-30 04:40:00+00:00,292.5731,13.4,12.97,47.84626,-54.09684
2017-09-30 04:50:00+00:00,299.7114,13.4,12.97,47.84626,-54.09684
2017-09-30 05:00:00+00:00,302.1196,13.4,12.97,47.84626,-54.09684
2017-09-30 05:10:00+00:00,300.1064,13.4,12.89,47.84626,-54.09684
2017-09-30 05:20:00+00:00,310.0047,13.4,12.97,47.84626,-54.09684
2017-09-30 05:30:00+00:00,319.278,13.46,12.97,47.84626,-54.09684
2017-09-30 05:40:00+00:00,315.783,13.5,12.97,47.84626,-54.09684
2017-09-30 05:50:00+00:00,309.3997,13.44,12.97,47.84626,-54.09684
2017-09-30 06:00:00+00:00,317.793,13.4,12.89,47.84626,-54.09684
2017-09-30 06:10:00+00:00,325.353,13.4,12.89,47.84626,-54.09684
2017-09-30 06:20:00+00:00,317.6331,13.4,12.97,47.84626,-54.09684
2017-09-30 06:30:00+00:00,313.9697,13.4,12.97,47.84626,-54.09684
2017-09-30 06:40:00+00:00,320.2664,13.4,12.97,47.84626,-54.09684
2017-09-30 06:50:00+00:00,322.233,13.4,12.97,47.84626,-54.09684
2017-09-30 07:00:00+00:00,320.3447,13.4,12.89,47.84626,-54.09684
2017-09-30 07:10:00+00:00,326.2546,13.4,12.81,47.84626,-54.09684
2017-09-30 07:20:00+00:00,327.1196,13.4,12.89,47.84626,-54.09684
2017-09-30 07:30:00+00:00,319.558,13.4,12.97,47.84626,-54.09684
2017-09-30 07:40:00+00:00,326.618,13.39,12.97,47.84626,-54.09684
2017-09-30 07:50:00+00:00,332.983,13.4,12.97,47.84626,-54.09684
2017-09-30 08:00:00+00:00,323.0297,13.4,12.89,47.84626,-54.09684
2017-09-30 08:10:00+00:00,314.9064,13.3,12.81,47.84626,-54.09684
2017-09-30 08:20:00+00:00,322.3847,13.34,12.89,47.84626,-54.09684
2017-09-30 08:30:00+00:00,324.2081,13.4,12.89,47.84626,-54.09684
2017-09-30 08:40:00+00:00,308.6647,13.4,12.97,47.84626,-54.09684
2017-09-30 08:50:00+00:00,303.1813,13.38,12.97,47.84626,-54.09684
2017-09-30 09:00:00+00:00,308.4597,13.38,12.89,47.84626,-54.09684
2017-09-30 09:10:00+00:00,302.088,13.4,12.81,47.84626,-54.09684
2017-09-30 09:20:00+00:00,289.363,13.4,12.89,47.84626,-54.09684
2017-09-30 09:30:00+00:00,293.4948,13.4,12.89,47.84626,-54.09684
2017-09-30 09:40:00+00:00,295.7596,13.4,12.89,47.84626,-54.09684
2017-09-30 09:50:00+00:00,286.0347,13.4,12.97,47.84626,-54.09684
2017-09-30 10:00:00+00:00,279.6914,13.42,13.13,47.84626,-54.09684
2017-09-30 10:10:00+00:00,284.5064,13.47,13.29,47.84626,-54.09684
2017-09-30 10:20:00+00:00,280.6614,13.3,13.76,47.84626,-54.09684
2017-09-30 10:30:00+00:00,272.3564,13.07,14.24,47.84626,-54.09684
2017-09-30 10:40:00+00:00,271.2914,13.0,13.68,47.84626,-54.09684
2017-09-30 10:50:00+00:00,270.3747,12.99,13.44,47.84626,-54.09684
2017-09-30 11:00:00+00:00,261.8348,12.96,13.44,47.84626,-54.09684
2017-09-30 11:10:00+00:00,258.4115,12.95,13.84,47.84626,-54.09684
2017-09-30 11:20:00+00:00,259.5948,12.94,13.44,47.84626,-54.09684
2017-09-30 11:30:00+00:00,259.9464,13.0,13.53,47.84626,-54.09684
2017-09-30 11:40:00+00:00,258.3347,12.99,13.53,47.84626,-54.09684
2017-09-30 11:50:00+00:00,256.6547,12.99,13.53,47.84626,-54.09684
2017-09-30 12:00:00+00:00,253.4497,13.0,13.44,47.84626,-54.09684
2017-09-30 12:10:00+00:00,250.4031,12.99,13.53,47.84626,-54.09684
2017-09-30 12:20:00+00:00,247.4731,13.0,13.53,47.84626,-54.09684
2017-09-30 12:30:00+00:00,247.3281,12.99,13.44,47.84626,-54.09684
2017-09-30 12:40:00+00:00,246.0164,12.98,13.44,47.84626,-54.09684
2017-09-30 12:50:00+00:00,245.7497,12.97,13.44,47.84626,-54.09684
2017-09-30 13:00:00+00:00,242.6731,12.95,13.44,47.84626,-54.09684
2017-09-30 13:10:00+00:00,241.8648,12.94,13.68,47.84626,-54.09684
2017-09-30 13:20:00+00:00,243.6431,12.93,13.44,47.84626,-54.09684
2017-09-30 13:30:00+00:00,244.1047,12.91,13.44,47.84626,-54.09684
2017-09-30 13:40:00+00:00,240.5998,12.94,13.44,47.84626,-54.09684
2017-09-30 13:50:00+00:00,241.9647,12.99,13.68,47.84626,-54.09684
2017-09-30 14:00:00+00:00,243.6364,13.0,13.44,47.84626,-54.09684
2017-09-30 14:10:00+00:00,244.9865,13.0,13.53,47.84626,-54.09684
2017-09-30 14:20:00+00:00,244.0097,13.0,13.44,47.84626,-54.09684
2017-09-30 14:30:00+00:00,242.0381,13.08,13.68,47.84626,-54.09684
2017-09-30 14:40:00+00:00,242.7081,13.11,13.6,47.84626,-54.09684
2017-09-30 14:50:00+00:00,250.3564,13.11,13.44,47.84626,-54.09684
2017-09-30 15:00:00+00:00,249.7397,13.2,14.0,47.84626,-54.09684
2017-09-30 15:10:00+00:00,248.5748,13.1,13.53,47.84626,-54.09684
2017-09-30 15:20:00+00:00,256.3681,13.1,13.44,47.84626,-54.09684
2017-09-30 15:30:00+00:00,263.6064,13.19,13.53,47.84626,-54.09684
2017-09-30 15:40:00+00:00,262.9947,13.18,13.44,47.84626,-54.09684
2017-09-30 15:50:00+00:00,264.733,13.1,13.53,47.84626,-54.09684
2017-09-30 16:00:00+00:00,270.6781,13.17,13.44,47.84626,-54.09684
2017-09-30 16:10:00+00:00,275.5947,13.28,13.53,47.84626,-54.09684
2017-09-30 16:20:00+00:00,276.0464,13.28,13.44,47.84626,-54.09684
2017-09-30 16:30:00+00:00,279.1663,13.35,13.53,47.84626,-54.09684
2017-09-30 16:40:00+00:00,285.2347,13.4,13.44,47.84626,-54.09684
2017-09-30 16:50:00+00:00,295.953,13.4,13.44,47.84626,-54.09684
2017-09-30 17:00:00+00:00,298.788,13.4,13.44,47.84626,-54.09684
2017-09-30 17:10:00+00:00,298.0514,13.2,13.44,47.84626,-54.09684
2017-09-30 17:20:00+00:00,300.543,13.22,13.44,47.84626,-54.09684
2017-09-30 17:30:00+00:00,308.7329,13.39,13.76,47.84626,-54.09684
2017-09-30 17:40:00+00:00,311.273,13.4,13.53,47.84626,-54.09684
2017-09-30 17:50:00+00:00,310.5264,13.3,13.53,47.84626,-54.09684
2017-09-30 18:00:00+00:00,310.6797,13.3,13.44,47.84626,-54.09684
2017-09-30 18:10:00+00:00,318.4464,13.38,13.68,47.84626,-54.09684
2017-09-30 18:20:00+00:00,321.0764,13.4,13.53,47.84626,-54.09684
2017-09-30 18:30:00+00:00,319.2846,13.4,13.44,47.84626,-54.09684
2017-09-30 18:40:00+00:00,317.6779,13.4,13.6,47.84626,-54.09684
2017-09-30 18:50:00+00:00,324.6213,13.4,13.68,47.84626,-54.09684
2017-09-30 19:00:00+00:00,329.793,13.41,13.68,47.84626,-54.09684
2017-09-30 19:10:00+00:00,325.298,13.4,13.53,47.84626,-54.09684
2017-09-30 19:20:00+00:00,322.8863,13.4,13.6,47.84626,-54.09684
2017-09-30 19:30:00+00:00,325.6413,13.4,13.53,47.84626,-54.09684
2017-09-30 19:40:00+00:00,327.5312,13.4,13.6,47.84626,-54.09684
2017-09-30 19:50:00+00:00,325.5364,13.33,13.6,47.84626,-54.09684
2017-09-30 20:00:00+00:00,327.7046,13.4,13.44,47.84626,-54.09684
2017-09-30 20:10:00+00:00,327.7497,13.46,13.29,47.84626,-54.09684
2017-09-30 20:20:00+00:00,322.213,13.43,13.37,47.84626,-54.09684
2017-09-30 20:30:00+00:00,321.363,13.4,13.37,47.84626,-54.09684
2017-09-30 20:40:00+00:00,322.1813,13.33,13.29,47.84626,-54.09684
2017-09-30 20:50:00+00:00,317.9747,13.38,13.29,47.84626,-54.09684
2017-09-30 21:00:00+00:00,314.3397,13.4,13.21,47.84626,-54.09684
2017-09-30 21:10:00+00:00,312.2864,13.39,13.05,47.84626,-54.09684
2017-09-30 21:20:00+00:00,304.883,13.4,13.13,47.84626,-54.09684
2017-09-30 21:30:00+00:00,296.9431,13.5,13.13,47.84626,-54.09684
2017-09-30 21:40:00+00:00,295.8831,13.5,13.13,47.84626,-54.09684
2017-09-30 21:50:00+00:00,295.5914,13.49,13.13,47.84626,-54.09684
2017-09-30 22:00:00+00:00,288.3547,13.49,13.05,47.84626,-54.09684
2017-09-30 22:10:00+00:00,281.7798,13.5,12.97,47.84626,-54.09684
2017-09-30 22:20:00+00:00,281.0198,13.5,13.05,47.84626,-54.09684
2017-09-30 22:30:00+00:00,278.0497,13.52,13.05,47.84626,-54.09684
2017-09-30 22:40:00+00:00,270.8947,13.55,13.05,47.84626,-54.09684
2017-09-30 22:50:00+00:00,267.2031,13.5,13.05,47.84626,-54.09684
2017-09-30 23:00:00+00:00,268.5747,13.5,13.05,47.84626,-54.09684
2017-09-30 23:10:00+00:00,264.3547,13.4,12.97,47.84626,-54.09684
2017-09-30 23:20:00+00:00,257.3398,13.4,13.05,47.84626,-54.09684
2017-09-30 23:30:00+00:00,252.0514,13.4,13.05,47.84626,-54.09684
2017-09-30 23:40:00+00:00,249.0548,13.4,13.05,47.84626,-54.09684
2017-09-30 23:50:00+00:00,246.4898,13.42,13.05,47.84626,-54.09684
